This demonstration page uses our WeatherBlox Daily Observations layout. Learn more.

Left ArrowRight Arrow

Hourly Observations for January 20, 2021

Temp ( °F °C ) Dew Point ( °F °C ) Humidity (%) Winds ( mph kmh ) Pressure ( in mb ) Visibility ( mi km ) Precip ( " mm )
12:27 am 00:27 Clear 46 7.8 14 -10 27 27 W 33 54 29.72 1006 10 16 0.00 0.00
12:53 am 00:53 Clear 42 5.6 14 -10 32 32 W 28 44 29.75 1008 10 16 0.00 0.00
1:53 am 01:53 Clear 39 3.9 12 -11.1 33 33 WSW 23 37 29.78 1009 10 16 0.00 0.00
2:53 am 02:53 Clear 36 2.2 13 -10.6 39 39 SW 20 31 29.81 1010 10 16 0.00 0.00
3:53 am 03:53 Clear 38 3.3 16 -8.9 41 41 W 25 41 29.82 1010 10 16 0.00 0.00
4:36 am 04:36 Mostly Clear 37 2.8 18 -7.8 46 46 NW 22 35 29.91 1013 10 16 0.00 0.00
4:53 am 04:53 Clear 35 1.7 18 -7.8 50 50 NW 10 17 29.90 1013 10 16 0.00 0.00
5:53 am 05:53 Clear 26 -3.3 16 -8.9 66 66 SSW 10 17 29.93 1014 10 16 0.00 0.00
6:53 am 06:53 Clear 23 -5 15 -9.4 72 72 SW 9 15 29.94 1014 10 16 0.00 0.00
7:53 am 07:53 Clear 23 -5 15 -9.4 72 72 SW 10 17 29.96 1014 10 16 0.00 0.00
8:53 am 08:53 Sunny 24 -4.4 16 -8.9 71 71 WSW 10 17 29.95 1014 10 16 0.00 0.00
9:53 am 09:53 Sunny 32 0 18 -7.8 56 56 WSW 10 17 29.94 1014 10 16 0.00 0.00
10:53 am 10:53 Sunny 38 3.3 18 -7.8 44 44 W 15 24 29.93 1014 10 16 0.00 0.00
11:53 am 11:53 Sunny 40 4.4 17 -8.3 40 40 SW 14 22 29.91 1013 10 16 0.00 0.00
12:53 pm 12:53 Sunny 43 6.1 16 -8.9 34 34 W 13 20 29.88 1012 10 16 0.00 0.00
1:53 pm 13:53 Sunny 43 6.1 14 -10 31 31 WNW 17 28 29.87 1012 10 16 0.00 0.00
2:53 pm 14:53 Sunny 43 6.1 15 -9.4 32 32 NW 15 24 29.87 1012 10 16 0.00 0.00
3:53 pm 15:53 Sunny 42 5.6 16 -8.9 35 35 NW 10 17 29.88 1012 10 16 0.00 0.00
4:53 pm 16:53 Sunny 35 1.7 15 -9.4 44 44 NNE 5 7 29.91 1013 10 16 0.00 0.00
5:53 pm 17:53 Clear 29 -1.7 14 -10 54 54 Calm 29.94 1014 10 16 0.00 0.00
6:53 pm 18:53 Clear 20 -6.7 11 -11.7 68 68 W 5 7 29.99 1016 10 16 0.00 0.00
7:53 pm 19:53 Clear 17 -8.3 9 -12.8 70 70 SW 3 6 30.02 1017 10 16 0.00 0.00
8:53 pm 20:53 Clear 18 -7.8 9 -12.8 68 68 WSW 3 6 30.04 1017 10 16 0.00 0.00
9:53 pm 21:53 Clear 22 -5.6 11 -11.7 63 63 SW 7 11 30.05 1018 10 16 0.00 0.00
10:53 pm 22:53 Clear 18 -7.8 10 -12.2 71 71 W 7 11 30.07 1018 10 16 0.00 0.00
11:53 pm 23:53 Clear 19 -7.2 11 -11.7 71 71 SW 9 15 30.09 1019 10 16 0.00 0.00

Powered by AerisWeather